Location: Unspecified
(0.0000°N, 0.0000°E)
Time: 02:39:27
(UTC+00:00)

Tiangong - Pass Details

Date: 30 September 2022
Orbit: 377 x 383 km, 41.5° (Epoch: 24 September)

Event Time Altitude Azimuth Distance (km) Brightness Sun altitude
Rises 18:29:45 0° 212° (SSW) 2,236 2.3 -9.9°
Reaches altitude 10° 18:31:57 10° 202° (SSW) 1,382 1.0 -10.5°
Maximum altitude 18:34:47 32° 136° (SE) 670 -1.3 -11.2°
Enters shadow 18:36:23 19° 85° (E) 954 -0.8 -11.6°
